Time,TemperatureF,DewpointF,PressureIn,WindDirection,WindDirectionDegrees,WindSpeedMPH,WindSpeedGustMPH,Humidity,HourlyPrecipIn,Conditions,Clouds,dailyrainin,SoftwareType,DateUTC
2013-09-19 00:21:00,71.0,39.0,29.86,WNW,298,5.0,11.0,31,0.00,,,0.00,,2013-09-19 07:21:00,
2013-09-19 00:52:00,70.0,38.0,29.86,WNW,298,3.0,8.0,31,0.00,,,0.00,,2013-09-19 07:52:00,
2013-09-19 01:21:00,69.0,39.0,29.87,North,0,0.0,2.0,33,0.00,,,0.00,,2013-09-19 08:21:00,
2013-09-19 01:52:00,69.0,39.0,29.87,North,0,0.0,1.0,34,0.00,,,0.00,,2013-09-19 08:52:00,
2013-09-19 02:21:00,67.0,38.0,29.87,North,0,0.0,2.0,34,0.00,,,0.00,,2013-09-19 09:21:00,
2013-09-19 02:53:00,65.0,37.0,29.87,North,0,0.0,4.0,36,0.00,,,0.00,,2013-09-19 09:53:00,
2013-09-19 03:23:00,65.0,36.0,29.87,North,0,0.0,3.0,34,0.00,,,0.00,,2013-09-19 10:23:00,
2013-09-19 03:52:00,64.0,37.0,29.87,North,0,0.0,2.0,36,0.00,,,0.00,,2013-09-19 10:52:00,
2013-09-19 04:22:00,64.0,37.0,29.87,WNW,295,2.0,5.0,37,0.00,,,0.00,,2013-09-19 11:22:00,
2013-09-19 04:52:00,64.0,36.0,29.86,NNW,340,1.0,5.0,35,0.00,,,0.00,,2013-09-19 11:52:00,
2013-09-19 05:21:00,64.0,36.0,29.87,NNW,331,1.0,4.0,35,0.00,,,0.00,,2013-09-19 12:21:00,
2013-09-19 05:52:00,62.0,33.0,29.88,NNW,331,2.0,4.0,33,0.00,,,0.00,,2013-09-19 12:52:00,
2013-09-19 06:21:00,62.0,32.0,29.90,NW,320,2.0,4.0,32,0.00,,,0.00,,2013-09-19 13:21:00,
2013-09-19 06:52:00,61.0,31.0,29.90,NW,321,1.0,4.0,32,0.00,,,0.00,,2013-09-19 13:52:00,
2013-09-19 07:22:00,59.0,31.0,29.91,NNW,327,2.0,4.0,35,0.00,,,0.00,,2013-09-19 14:22:00,
2013-09-19 09:23:00,74.0,34.0,29.93,SSE,167,2.0,6.0,23,0.00,,,0.00,,2013-09-19 16:23:00,
2013-09-19 10:23:00,79.0,29.0,29.94,ENE,75,3.0,7.0,16,0.00,,,0.00,,2013-09-19 17:23:00,
2013-09-19 10:53:00,80.0,28.0,29.94,East,83,4.0,9.0,15,0.00,,,0.00,,2013-09-19 17:53:00,
2013-09-19 11:11:00,80.0,28.0,29.94,ENE,74,4.0,10.0,15,0.00,,,0.00,,2013-09-19 18:11:00,
2013-09-19 11:22:00,82.0,28.0,29.94,East,99,3.0,10.0,14,0.00,,,0.00,,2013-09-19 18:22:00,
2013-09-19 11:52:00,83.0,27.0,29.93,East,87,5.0,11.0,13,0.00,,,0.00,,2013-09-19 18:52:00,
2013-09-19 12:21:00,84.0,31.0,29.93,ESE,103,2.0,11.0,15,0.00,,,0.00,,2013-09-19 19:21:00,
2013-09-19 12:52:00,85.0,29.0,29.92,East,98,3.0,12.0,13,0.00,,,0.00,,2013-09-19 19:52:00,
2013-09-19 13:21:00,87.0,30.0,29.91,East,87,2.0,14.0,13,0.00,,,0.00,,2013-09-19 20:21:00,
2013-09-19 13:52:00,88.0,29.0,29.89,ESE,117,6.0,12.0,12,0.00,,,0.00,,2013-09-19 20:52:00,
2013-09-19 14:22:00,88.0,29.0,29.88,ESE,123,5.0,14.0,12,0.00,,,0.00,,2013-09-19 21:22:00,
2013-09-19 14:55:00,89.0,30.0,29.87,ESE,103,5.0,12.0,12,0.00,,,0.00,,2013-09-19 21:55:00,
2013-09-19 15:24:00,90.0,28.0,29.86,East,96,3.0,12.0,11,0.00,,,0.00,,2013-09-19 22:24:00,
2013-09-19 15:53:00,90.0,28.0,29.85,East,87,7.0,18.0,11,0.00,,,0.00,,2013-09-19 22:53:00,
2013-09-19 16:22:00,89.0,28.0,29.84,SE,133,3.0,13.0,11,0.00,,,0.00,,2013-09-19 23:22:00,
2013-09-19 16:53:00,89.0,28.0,29.83,SE,131,5.0,13.0,11,0.00,,,0.00,,2013-09-19 23:53:00,
2013-09-19 17:21:00,89.0,28.0,29.83,ENE,67,3.0,9.0,11,0.00,,,0.00,,2013-09-20 00:21:00,
2013-09-19 17:52:00,90.0,28.0,29.82,North,0,0.0,2.0,11,0.00,,,0.00,,2013-09-20 00:52:00,
2013-09-19 18:22:00,89.0,28.0,29.83,ENE,72,1.0,4.0,11,0.00,,,0.00,,2013-09-20 01:22:00,
2013-09-19 18:52:00,89.0,30.0,29.82,North,0,0.0,0.0,12,0.00,,,0.00,,2013-09-20 01:52:00,
2013-09-19 19:22:00,85.0,29.0,29.82,North,0,0.0,0.0,13,0.00,,,0.00,,2013-09-20 02:22:00,
2013-09-19 20:56:00,77.0,38.0,29.84,North,0,0.0,5.0,25,0.00,,,0.00,,2013-09-20 03:56:00,
2013-09-19 21:24:00,77.0,39.0,29.87,WNW,294,1.0,5.0,26,0.00,,,0.00,,2013-09-20 04:24:00,
2013-09-19 21:53:00,75.0,39.0,29.87,NW,310,1.0,5.0,27,0.00,,,0.00,,2013-09-20 04:53:00,
2013-09-19 22:23:00,74.0,38.0,29.88,North,0,0.0,2.0,27,0.00,,,0.00,,2013-09-20 05:23:00,
2013-09-19 22:53:00,73.0,36.0,29.88,NNW,342,2.0,5.0,26,0.00,,,0.00,,2013-09-20 05:53:00,
2013-09-19 23:21:00,73.0,33.0,29.88,NNW,344,3.0,5.0,23,0.00,,,0.00,,2013-09-20 06:21:00,
2013-09-19 23:52:00,73.0,31.0,29.88,NNW,336,3.0,6.0,21,0.00,,,0.00,,2013-09-20 06:52:00,